"Period start","avg(HW err(1)/warn(2) (#))","avg(Visibility (m))","avg(Weather code (#))","avg(Precip intensity (mm/h))","min(HW err(1)/warn(2) (#))","max(HW err(1)/warn(2) (#))","std(HW err(1)/warn(2) (#))","med(HW err(1)/warn(2) (#))","min(Visibility (m))","max(Visibility (m))","std(Visibility (m))","med(Visibility (m))","min(Weather code (#))","max(Weather code (#))","std(Weather code (#))","med(Weather code (#))","min(Precip intensity (mm/h))","max(Precip intensity (mm/h))","std(Precip intensity (mm/h))","med(Precip intensity (mm/h))"
2014-10-16 00:00:00,2,47598,0,0.00,2,2,0,2,42205,50000,2478,47765,0,0,0,0,0.00,0.00,0.00,0.00
2014-10-16 00:10:00,2,33509,0,0.00,2,2,0,2,20452,45154,7057,32966,0,0,0,0,0.00,0.00,0.00,0.00
2014-10-16 00:20:00,2,43276,22,0.00,2,2,0,2,28496,50000,7552,46238,0,78,34,0,0.00,0.00,0.00,0.00
2014-10-16 00:30:00,2,43123,0,0.00,2,2,0,2,32751,50000,5750,43198,0,0,0,0,0.00,0.00,0.00,0.00
2014-10-16 00:40:00,2,28707,0,0.00,2,2,0,2,22822,40039,5528,25990,0,0,0,0,0.00,0.00,0.00,0.00
2014-10-16 00:50:00,2,48468,0,0.00,2,2,0,2,43199,50000,2243,49654,0,0,0,0,0.00,0.00,0.00,0.00
2014-10-16 01:00:00,2,44144,0,0.00,2,2,0,2,39582,50000,2799,43941,0,0,0,0,0.00,0.00,0.00,0.00
2014-10-16 01:10:00,2,32605,45,0.00,2,2,0,2,18483,45392,8592,32800,0,78,37,71,0.00,0.00,0.00,0.00
2014-10-16 01:20:00,2,24890,30,0.01,2,2,0,2,11176,46079,9169,24604,0,77,36,0,0.00,0.10,0.03,0.00
2014-10-16 01:30:00,2,20949,78,0.02,2,2,0,2,14396,34369,7152,17474,77,78,0,78,0.00,0.05,0.02,0.00
2014-10-16 01:40:00,2,29563,78,0.00,2,2,0,2,20818,40401,6207,31630,78,78,0,78,0.00,0.00,0.00,0.00
2014-10-16 01:50:00,2,26503,78,0.01,2,2,0,2,19268,32776,4020,26488,78,78,0,78,0.00,0.05,0.02,0.00
2014-10-16 02:00:00,2,30752,8,0.00,2,2,0,2,25040,39146,4335,29424,0,78,23,0,0.00,0.00,0.00,0.00
2014-10-16 02:10:00,2,22542,22,0.00,2,2,0,2,16921,26644,3085,22506,0,78,34,0,0.00,0.00,0.00,0.00
2014-10-16 02:20:00,2,33920,47,0.00,2,2,0,2,30117,40753,2819,33119,0,78,38,78,0.00,0.00,0.00,0.00
2014-10-16 02:30:00,2,31865,0,0.00,2,2,0,2,21989,37750,5031,32490,0,0,0,0,0.00,0.00,0.00,0.00
2014-10-16 02:40:00,2,44719,0,0.00,2,2,0,2,40273,49113,3279,43962,0,0,0,0,0.00,0.00,0.00,0.00
2014-10-16 02:50:00,2,47479,0,0.00,2,2,0,2,42555,50000,2784,48598,0,0,0,0,0.00,0.00,0.00,0.00
2014-10-16 03:00:00,2,48231,0,0.00,2,2,0,2,41329,50000,2686,49622,0,0,0,0,0.00,0.00,0.00,0.00
2014-10-16 03:10:00,2,47623,0,0.00,2,2,0,2,44355,50000,2202,47704,0,0,0,0,0.00,0.00,0.00,0.00
2014-10-16 03:20:00,2,45924,0,0.00,2,2,0,2,39150,50000,4229,48033,0,0,0,0,0.00,0.00,0.00,0.00
2014-10-16 03:30:00,2,47243,0,0.00,2,2,0,2,44597,50000,1916,46845,0,0,0,0,0.00,0.00,0.00,0.00
2014-10-16 03:40:00,2,48283,0,0.00,2,2,0,2,42331,50000,2463,49325,0,0,0,0,0.00,0.00,0.00,0.00
2014-10-16 03:50:00,2,48695,0,0.00,2,2,0,2,41251,50000,2793,50000,0,0,0,0,0.00,0.00,0.00,0.00
2014-10-16 04:00:00,2,46664,0,0.00,2,2,0,2,39186,50000,3958,48530,0,0,0,0,0.00,0.00,0.00,0.00
2014-10-16 04:10:00,2,39716,0,0.00,2,2,0,2,27588,48694,6776,40172,0,0,0,0,0.00,0.00,0.00,0.00
2014-10-16 04:20:00,2,41360,0,0.00,2,2,0,2,35874,44358,2677,41528,0,0,0,0,0.00,0.00,0.00,0.00
2014-10-16 04:30:00,2,46594,0,0.00,2,2,0,2,39115,50000,3686,48238,0,0,0,0,0.00,0.00,0.00,0.00
2014-10-16 04:40:00,2,49574,0,0.00,2,2,0,2,46300,50000,1104,50000,0,0,0,0,0.00,0.00,0.00,0.00
2014-10-16 04:50:00,2,46840,0,0.00,2,2,0,2,39305,50000,3346,48222,0,0,0,0,0.00,0.00,0.00,0.00
2014-10-16 05:00:00,2,47794,0,0.00,2,2,0,2,42743,50000,2327,48416,0,0,0,0,0.00,0.00,0.00,0.00
2014-10-16 05:10:00,2,49916,0,0.00,2,2,0,2,49158,50000,253,50000,0,0,0,0,0.00,0.00,0.00,0.00
2014-10-16 05:20:00,2,48602,0,0.00,2,2,0,2,44504,50000,1894,49288,0,0,0,0,0.00,0.00,0.00,0.00
2014-10-16 05:30:00,2,48936,0,0.00,2,2,0,2,45570,50000,1459,49857,0,0,0,0,0.00,0.00,0.00,0.00
2014-10-16 05:40:00,2,47977,0,0.00,2,2,0,2,42330,50000,2868,49920,0,0,0,0,0.00,0.00,0.00,0.00
2014-10-16 05:50:00,2,45344,38,0.00,2,2,0,2,37261,50000,3519,45384,0,78,38,36,0.00,0.00,0.00,0.00
2014-10-16 06:00:00,2,42956,0,0.00,2,2,0,2,33849,48405,3901,43018,0,0,0,0,0.00,0.00,0.00,0.00
2014-10-16 06:10:00,2,39163,61,0.00,2,2,0,2,35592,46603,3360,37721,0,78,30,77,0.00,0.00,0.00,0.00
2014-10-16 06:20:00,2,16416,77,0.00,2,2,0,2,10615,29192,6256,13193,77,78,0,77,0.00,0.00,0.00,0.00
2014-10-16 06:30:00,2,13694,70,0.00,2,2,0,2,9923,23323,4540,11447,0,78,23,78,0.00,0.00,0.00,0.00
2014-10-16 06:40:00,2,12035,0,0.00,2,2,0,2,9617,20487,3101,10778,0,0,0,0,0.00,0.00,0.00,0.00
2014-10-16 06:50:00,2,12974,45,0.00,2,2,0,2,11112,15952,1569,12325,0,78,37,71,0.00,0.00,0.00,0.00
2014-10-16 07:00:00,2,17266,78,0.00,2,2,0,2,15385,19095,1354,17026,78,78,0,78,0.00,0.00,0.00,0.00
2014-10-16 07:10:00,2,21857,23,0.00,2,2,0,2,16486,26087,2460,21832,0,78,36,0,0.00,0.00,0.00,0.00
2014-10-16 07:20:00,2,27112,45,0.01,2,2,0,2,20079,36799,4796,26904,0,78,37,71,0.00,0.05,0.02,0.00
2014-10-16 07:30:00,2,28974,75,0.03,2,2,0,2,16178,40550,7668,30380,71,78,3,78,0.00,0.15,0.05,0.00
2014-10-16 07:40:00,2,25519,72,0.06,2,2,0,2,12975,34174,6746,26344,71,77,2,71,0.00,0.35,0.11,0.00
2014-10-16 07:50:00,2,31887,28,0.01,2,2,0,2,19826,49448,9415,31146,0,71,35,0,0.00,0.10,0.03,0.00
2014-10-16 08:00:00,2,33602,37,0.00,2,2,0,2,24028,41436,5075,32997,0,77,37,36,0.00,0.00,0.00,0.00
2014-10-16 08:10:00,2,47170,0,0.00,2,2,0,2,41295,50000,3190,48512,0,0,0,0,0.00,0.00,0.00,0.00
2014-10-16 08:20:00,2,44179,0,0.00,2,2,0,2,39783,50000,3299,43494,0,0,0,0,0.00,0.00,0.00,0.00
2014-10-16 08:30:00,2,46812,0,0.00,2,2,0,2,40702,50000,2639,47630,0,0,0,0,0.00,0.00,0.00,0.00
2014-10-16 08:40:00,2,42217,0,0.00,2,2,0,2,34117,49033,5211,43261,0,0,0,0,0.00,0.00,0.00,0.00
2014-10-16 08:50:00,2,42548,0,0.00,2,2,0,2,36922,47751,3259,42476,0,0,0,0,0.00,0.00,0.00,0.00
2014-10-16 09:00:00,2,39212,0,0.00,2,2,0,2,25543,48993,6214,39008,0,0,0,0,0.00,0.00,0.00,0.00
2014-10-16 09:10:00,2,41158,0,0.00,2,2,0,2,31401,47535,5300,42724,0,0,0,0,0.00,0.00,0.00,0.00
2014-10-16 09:20:00,2,46121,0,0.00,2,2,0,2,39852,50000,3443,47138,0,0,0,0,0.00,0.00,0.00,0.00
2014-10-16 09:30:00,2,42913,0,0.00,2,2,0,2,35014,49450,5272,41916,0,0,0,0,0.00,0.00,0.00,0.00
2014-10-16 09:40:00,2,46382,0,0.00,2,2,0,2,43918,50000,1957,46300,0,0,0,0,0.00,0.00,0.00,0.00
2014-10-16 09:50:00,2,46938,0,0.00,2,2,0,2,40143,50000,2825,47765,0,0,0,0,0.00,0.00,0.00,0.00
2014-10-16 10:00:00,2,45955,0,0.00,2,2,0,2,40423,50000,3238,46200,0,0,0,0,0.00,0.00,0.00,0.00
2014-10-16 10:10:00,2,44087,0,0.00,2,2,0,2,37855,50000,3477,44977,0,0,0,0,0.00,0.00,0.00,0.00
2014-10-16 10:20:00,2,48214,0,0.00,2,2,0,2,43558,50000,1913,48714,0,0,0,0,0.00,0.00,0.00,0.00
2014-10-16 10:30:00,2,49951,0,0.00,2,2,0,2,49681,50000,96,50000,0,0,0,0,0.00,0.00,0.00,0.00
2014-10-16 10:40:00,2,48416,0,0.00,2,2,0,2,43695,50000,2239,49738,0,0,0,0,0.00,0.00,0.00,0.00
2014-10-16 10:50:00,2,49259,0,0.00,2,2,0,2,46624,50000,1326,50000,0,0,0,0,0.00,0.00,0.00,0.00
2014-10-16 11:00:00,2,24308,38,0.01,2,2,0,2,9071,50000,16818,13664,0,78,38,36,0.00,0.05,0.02,0.00
2014-10-16 11:10:00,2,10108,78,0.01,2,2,0,2,8087,11676,1315,10714,78,78,0,78,0.00,0.05,0.02,0.00
2014-10-16 11:20:00,2,9648,78,0.00,2,2,0,2,7960,11740,1006,9813,78,78,0,78,0.00,0.00,0.00,0.00
2014-10-16 11:30:00,2,12486,77,0.01,2,2,0,2,9981,16319,1855,11996,77,78,0,77,0.00,0.05,0.02,0.00
2014-10-16 11:40:00,2,17922,78,0.00,2,2,0,2,14368,24280,3716,15784,78,78,0,78,0.00,0.00,0.00,0.00
2014-10-16 11:50:00,2,38884,47,0.00,2,2,0,2,27094,49467,7812,41042,0,78,38,78,0.00,0.00,0.00,0.00
2014-10-16 12:00:00,2,49144,0,0.00,2,2,0,2,47528,50000,943,49444,0,0,0,0,0.00,0.00,0.00,0.00
2014-10-16 12:10:00,2,49150,0,0.00,2,2,0,2,45639,50000,1369,50000,0,0,0,0,0.00,0.00,0.00,0.00
2014-10-16 12:20:00,2,49530,0,0.00,2,2,0,2,47119,50000,918,50000,0,0,0,0,0.00,0.00,0.00,0.00
2014-10-16 12:30:00,2,49947,0,0.00,2,2,0,2,49472,50000,158,50000,0,0,0,0,0.00,0.00,0.00,0.00
2014-10-16 12:40:00,2,49552,0,0.00,2,2,0,2,46418,50000,1064,50000,0,0,0,0,0.00,0.00,0.00,0.00
2014-10-16 12:50:00,2,45836,0,0.00,2,2,0,2,38634,50000,4450,47522,0,0,0,0,0.00,0.00,0.00,0.00
2014-10-16 13:00:00,2,49243,0,0.00,2,2,0,2,45475,50000,1482,50000,0,0,0,0,0.00,0.00,0.00,0.00
2014-10-16 13:10:00,2,48897,0,0.00,2,2,0,2,40689,50000,2784,50000,0,0,0,0,0.00,0.00,0.00,0.00
2014-10-16 13:20:00,2,49218,0,0.00,2,2,0,2,45631,50000,1367,50000,0,0,0,0,0.00,0.00,0.00,0.00
2014-10-16 13:30:00,2,49432,0,0.00,2,2,0,2,46089,50000,1233,50000,0,0,0,0,0.00,0.00,0.00,0.00
2014-10-16 13:40:00,2,49552,0,0.00,2,2,0,2,48021,50000,663,50000,0,0,0,0,0.00,0.00,0.00,0.00
2014-10-16 13:50:00,2,49674,0,0.00,2,2,0,2,48317,50000,581,50000,0,0,0,0,0.00,0.00,0.00,0.00
2014-10-16 14:00:00,2,49918,0,0.00,2,2,0,2,49178,50000,247,50000,0,0,0,0,0.00,0.00,0.00,0.00
2014-10-16 14:10:00,2,49430,0,0.00,2,2,0,2,46356,50000,1110,50000,0,0,0,0,0.00,0.00,0.00,0.00
2014-10-16 14:20:00,2,43825,0,0.00,2,2,0,2,33909,50000,5829,45770,0,0,0,0,0.00,0.00,0.00,0.00
2014-10-16 14:30:00,2,41580,0,0.00,2,2,0,2,32655,50000,5990,40659,0,0,0,0,0.00,0.00,0.00,0.00
2014-10-16 14:40:00,2,47553,0,0.00,2,2,0,2,41714,50000,2640,48117,0,0,0,0,0.00,0.00,0.00,0.00
2014-10-16 14:50:00,2,46858,0,0.00,2,2,0,2,38298,50000,4042,48412,0,0,0,0,0.00,0.00,0.00,0.00
2014-10-16 15:00:00,2,22955,0,0.00,2,2,0,2,9573,50000,15208,14357,0,0,0,0,0.00,0.00,0.00,0.00
2014-10-16 15:10:00,2,18076,0,0.00,2,2,0,2,10454,23734,4313,18703,0,0,0,0,0.00,0.00,0.00,0.00
2014-10-16 15:20:00,2,39844,0,0.00,2,2,0,2,19918,49007,9886,44030,0,0,0,0,0.00,0.00,0.00,0.00
2014-10-16 15:30:00,2,48923,0,0.00,2,2,0,2,45758,50000,1612,50000,0,0,0,0,0.00,0.00,0.00,0.00
2014-10-16 15:40:00,2,50000,0,0.00,2,2,0,2,50000,50000,0,50000,0,0,0,0,0.00,0.00,0.00,0.00
2014-10-16 15:50:00,2,49682,0,0.00,2,2,0,2,47478,50000,760,50000,0,0,0,0,0.00,0.00,0.00,0.00
2014-10-16 16:00:00,2,48574,0,0.00,2,2,0,2,43875,50000,2143,49746,0,0,0,0,0.00,0.00,0.00,0.00
2014-10-16 16:10:00,2,49301,0,0.00,2,2,0,2,46005,50000,1204,50000,0,0,0,0,0.00,0.00,0.00,0.00
2014-10-16 16:20:00,2,46515,0,0.00,2,2,0,2,41490,50000,2942,47300,0,0,0,0,0.00,0.00,0.00,0.00
2014-10-16 16:30:00,2,49766,0,0.00,2,2,0,2,47861,50000,637,50000,0,0,0,0,0.00,0.00,0.00,0.00
2014-10-16 16:40:00,2,45761,0,0.00,2,2,0,2,36431,50000,4857,47876,0,0,0,0,0.00,0.00,0.00,0.00
2014-10-16 16:50:00,2,49923,0,0.00,2,2,0,2,49229,50000,231,50000,0,0,0,0,0.00,0.00,0.00,0.00
2014-10-16 17:00:00,2,47288,0,0.00,2,2,0,2,39036,50000,3320,48746,0,0,0,0,0.00,0.00,0.00,0.00
2014-10-16 17:10:00,2,33642,66,0.01,2,2,0,2,17781,48205,8285,32866,0,78,22,71,0.00,0.05,0.02,0.00
2014-10-16 17:20:00,2,22729,73,0.03,2,2,0,2,14979,38008,6918,19394,71,78,3,71,0.00,0.25,0.07,0.00
2014-10-16 17:30:00,2,25133,73,0.04,2,2,0,2,19047,30745,4090,25048,71,77,3,71,0.00,0.35,0.11,0.00
2014-10-16 17:40:00,2,14037,71,0.18,2,2,0,2,5095,32001,7587,13300,71,71,0,71,0.00,0.65,0.23,0.10
2014-10-16 17:50:00,2,5085,71,0.59,2,2,0,2,1998,13822,3402,4076,71,71,0,71,0.05,1.30,0.38,0.68
2014-10-16 18:00:00,2,16543,71,0.04,2,2,0,2,8449,30358,6113,14991,71,71,0,71,0.00,0.15,0.05,0.05
2014-10-16 18:10:00,2,34696,70,0.00,2,2,0,2,26466,41300,4423,34536,0,78,23,78,0.00,0.00,0.00,0.00
2014-10-16 18:20:00,2,41580,0,0.00,2,2,0,2,30194,50000,6174,42436,0,0,0,0,0.00,0.00,0.00,0.00
2014-10-16 18:30:00,2,33734,45,0.00,2,2,0,2,15532,43755,9405,36760,0,77,37,71,0.00,0.00,0.00,0.00
2014-10-16 18:40:00,2,37076,21,0.01,2,2,0,2,21039,48405,9553,42360,0,71,33,0,0.00,0.10,0.03,0.00
2014-10-16 18:50:00,2,18280,71,0.11,2,2,0,2,9834,39049,8712,16266,71,71,0,71,0.00,0.25,0.09,0.08
2014-10-16 19:00:00,2,23847,75,0.04,2,2,0,2,12951,35425,8365,26027,71,77,3,77,0.00,0.20,0.07,0.00
2014-10-16 19:10:00,2,13775,71,0.20,2,2,0,2,5234,20853,4835,14849,71,71,0,71,0.00,0.80,0.26,0.10
2014-10-16 19:20:00,2,8647,71,0.35,2,2,0,2,3360,12583,2717,8980,71,71,0,71,0.05,1.05,0.31,0.28
2014-10-16 19:30:00,2,6792,71,0.55,2,2,0,2,2922,12094,2744,5958,71,71,0,71,0.15,1.60,0.42,0.33
2014-10-16 19:40:00,2,8221,71,0.29,2,2,0,2,3541,15168,3641,7358,71,71,0,71,0.00,0.75,0.24,0.30
2014-10-16 19:50:00,2,11882,71,0.21,2,2,0,2,3412,24943,6774,10900,71,71,0,71,0.00,0.85,0.27,0.10
2014-10-16 20:00:00,2,22068,71,0.08,2,2,0,2,10172,32154,7150,24126,71,71,0,71,0.00,0.40,0.12,0.03
2014-10-16 20:10:00,2,29112,75,0.00,2,2,0,2,20817,36289,4254,28025,71,78,3,77,0.00,0.00,0.00,0.00
2014-10-16 20:20:00,2,22840,78,0.01,2,2,0,2,18021,28792,3202,22623,78,78,0,78,0.00,0.05,0.02,0.00
2014-10-16 20:30:00,2,35963,78,0.00,2,2,0,2,30370,44065,4169,34911,78,78,0,78,0.00,0.00,0.00,0.00
2014-10-16 20:40:00,2,44738,70,0.00,2,2,0,2,37214,50000,3865,44670,0,78,23,78,0.00,0.00,0.00,0.00
2014-10-16 20:50:00,2,46975,0,0.00,2,2,0,2,34142,50000,5010,49672,0,0,0,0,0.00,0.00,0.00,0.00
2014-10-16 21:00:00,2,48991,0,0.00,2,2,0,2,46100,50000,1426,49872,0,0,0,0,0.00,0.00,0.00,0.00
2014-10-16 21:10:00,2,49990,0,0.00,2,2,0,2,49899,50000,30,50000,0,0,0,0,0.00,0.00,0.00,0.00
2014-10-16 21:20:00,2,49736,0,0.00,2,2,0,2,47356,50000,793,50000,0,0,0,0,0.00,0.00,0.00,0.00
2014-10-16 21:30:00,2,49907,0,0.00,2,2,0,2,49072,50000,278,50000,0,0,0,0,0.00,0.00,0.00,0.00
2014-10-16 21:40:00,2,49976,0,0.00,2,2,0,2,49757,50000,73,50000,0,0,0,0,0.00,0.00,0.00,0.00
2014-10-16 21:50:00,2,49874,0,0.00,2,2,0,2,48738,50000,379,50000,0,0,0,0,0.00,0.00,0.00,0.00
2014-10-16 22:00:00,2,48569,0,0.00,2,2,0,2,44451,50000,1890,49543,0,0,0,0,0.00,0.00,0.00,0.00
2014-10-16 22:10:00,2,47170,0,0.00,2,2,0,2,38801,50000,3867,48787,0,0,0,0,0.00,0.00,0.00,0.00
2014-10-16 22:20:00,2,48723,0,0.00,2,2,0,2,42447,50000,2606,50000,0,0,0,0,0.00,0.00,0.00,0.00
2014-10-16 22:30:00,2,49307,0,0.00,2,2,0,2,45523,50000,1389,50000,0,0,0,0,0.00,0.00,0.00,0.00
2014-10-16 22:40:00,2,49715,0,0.00,2,2,0,2,47996,50000,626,50000,0,0,0,0,0.00,0.00,0.00,0.00
2014-10-16 22:50:00,2,49631,0,0.00,2,2,0,2,46309,50000,1107,50000,0,0,0,0,0.00,0.00,0.00,0.00
2014-10-16 23:00:00,2,48437,0,0.00,2,2,0,2,44417,50000,2091,49767,0,0,0,0,0.00,0.00,0.00,0.00
2014-10-16 23:10:00,2,49313,0,0.00,2,2,0,2,46547,50000,1102,49943,0,0,0,0,0.00,0.00,0.00,0.00
2014-10-16 23:20:00,2,47215,0,0.00,2,2,0,2,42158,50000,2994,48636,0,0,0,0,0.00,0.00,0.00,0.00
2014-10-16 23:30:00,2,47794,0,0.00,2,2,0,2,41180,50000,3140,49104,0,0,0,0,0.00,0.00,0.00,0.00
2014-10-16 23:40:00,2,42018,0,0.00,2,2,0,2,29363,49794,7206,42984,0,0,0,0,0.00,0.00,0.00,0.00
2014-10-16 23:50:00,2,45353,0,0.00,2,2,0,2,37900,49806,4137,46469,0,0,0,0,0.00,0.00,0.00,0.00
